User: anonymous   Login
Location: Unspecified
(0.0000°N, 0.0000°E)
Time: 03:18:02
(UTC+00:00)
Language:

NOSS 3-1 (A) - Orbit

View from above orbital plane
View from above orbital plane
View from above satellite
View from above satellite

Ground track
Ground track

The orbit data is extracted from the following two-line orbital elements,

1 26905U 01040A   19290.14073218 0.00000000  00000-0  00000-0 0    07
2 26905  63.4037  16.6655 0446353   0.3441 359.6558 13.40772844    04
Epoch (UTC): 17 October 2019 03:22:39
Eccentricity: 0.0446353
inclination: 63.4037°
perigee height: 772 km
apogee height: 1440 km
right ascension of ascending node: 16.6655°
argument of perigee: 0.3441°
revolutions per day: 13.40772844
mean anomaly at epoch: 359.6558°
orbit number at epoch: 0

The dashed part of the orbit path shows where the satellite is in the earth's shadow,  

DLR